Location: Newark
(6.0333°S, 36.1333°E)
Time: 00:13:09
(UTC+00:00)

ISS - Pass Details

Date: 24 November 2019
Orbit: 411 x 421 km, 51.6° (Epoch: 08 December)

Event Time Altitude Azimuth Distance (km) Brightness Sun altitude
Exits shadow 01:02:36 14° 145° (SE) 1,281 -0.6 -29.7°
Drops below altitude 10° 01:03:08 10° 145° (SE) 1,497 -0.2 -29.6°
Sets 01:05:14 0° 145° (SE) 2,362 1.0 -29.1°
